Starlink 30573

operational
NORAD ID: 58058 Int'l Des: 2023-158 Owner: SPXS Country: US Constellation: starlink
LEOCIRCULAR

Über Starlink 30573

Beschreibung wird geladen...

Live-Position

3D-Globus wird geladen...

Nächste Überflüge

Höhenverlauf

Altitude vs Time

uPlot chart will show altitude changes over time

Zweizeiliger Elementsatz

1 58058U 23158H 25260.00069583 -.00000407 00000-0 -15093-4 0 9996
2 58058 43.0028 254.1427 0001280 275.9822 84.0875 15.02535919107400
Epoch: 17. Sept. 2025 • Age: 21 hours

Aktueller Status

Höhe 558.6 km
Geschwindigkeit 7.58 km/s
Subsatellitenpunkt 14.87°N, 93.91°E
Startdatum 13. Okt. 2023
Alter 1.9 years
Typ internet

Technische Details

Klassifizierung Payload
Masse 730.00 kg
Trockenmasse 700.00 kg
Gesamtmasse 730.00 kg
Länge 0.30 m
Durchmesser 4.10 m
Spannweite 29.00 m
Form Box + pan
Hersteller SPXS
Bus-Typ Starlink V2M
Phasenstatus In Orbit
Besitzer/Staat SPXS/US

Große Konstellationen

Loading constellations...